1576278014,2019-12-14 00:00,49.81,969.64,995.43,214,6.53,-3.20,-17,1
1576278074,2019-12-14 00:01,49.73,969.69,995.48,214,6.55,-3.20,-18,1
1576278135,2019-12-14 00:02,49.44,969.71,995.50,214,6.53,-3.30,-18,1
1576278195,2019-12-14 00:03,49.51,969.66,995.45,214,6.54,-3.27,-16,1
1576278255,2019-12-14 00:04,49.72,969.72,995.51,214,6.51,-3.24,-17,1
1576278315,2019-12-14 00:05,49.69,969.67,995.45,214,6.49,-3.27,-19,1
1576278376,2019-12-14 00:06,49.46,969.73,995.51,214,6.47,-3.34,-20,1
1576278436,2019-12-14 00:07,49.51,969.68,995.46,214,6.51,-3.29,-15,1
1576278496,2019-12-14 00:08,50.05,969.77,995.56,214,6.51,-3.15,-18,1
1576278557,2019-12-14 00:09,49.83,969.80,995.59,214,6.46,-3.25,-15,1
1576278617,2019-12-14 00:10,49.87,969.77,995.55,214,6.48,-3.23,-17,1
1576278677,2019-12-14 00:11,50.11,969.72,995.51,214,6.44,-3.20,-17,1
1576278737,2019-12-14 00:12,49.92,969.57,995.35,214,6.44,-3.25,-19,1
1576278798,2019-12-14 00:13,49.82,969.70,995.48,214,6.45,-3.27,-19,1
1576278858,2019-12-14 00:14,50.02,969.69,995.48,214,6.50,-3.17,-19,1
1576278918,2019-12-14 00:15,50.08,969.55,995.33,214,6.44,-3.21,-17,1
1576278979,2019-12-14 00:16,49.77,969.73,995.51,214,6.50,-3.23,-16,1
1576279039,2019-12-14 00:17,49.87,969.71,995.49,214,6.49,-3.22,-15,1
1576279099,2019-12-14 00:18,50.08,969.70,995.48,214,6.50,-3.15,-16,1
1576279159,2019-12-14 00:19,49.94,969.59,995.38,214,6.52,-3.17,-18,1
1576279220,2019-12-14 00:20,49.96,969.69,995.47,214,6.52,-3.17,-16,1
1576279280,2019-12-14 00:21,50.15,969.74,995.52,214,6.54,-3.09,-19,1
1576279340,2019-12-14 00:22,50.08,969.73,995.51,214,6.53,-3.12,-17,1
1576279401,2019-12-14 00:23,50.14,969.74,995.53,214,6.52,-3.12,-18,1
1576279461,2019-12-14 00:24,50.08,969.81,995.60,214,6.51,-3.14,-15,1
1576279521,2019-12-14 00:25,49.97,969.71,995.50,214,6.51,-3.17,-18,1
1576279581,2019-12-14 00:26,50.07,969.85,995.64,214,6.52,-3.14,-17,1
1576279641,2019-12-14 00:27,50.07,969.82,995.60,214,6.51,-3.14,-14,1
1576279702,2019-12-14 00:28,49.91,969.89,995.67,214,6.52,-3.18,-16,1
1576279762,2019-12-14 00:29,50.08,969.93,995.71,214,6.53,-3.12,-22,1
1576279822,2019-12-14 00:30,50.03,969.87,995.66,214,6.51,-3.16,-16,1
1576279882,2019-12-14 00:31,50.35,969.95,995.73,214,6.50,-3.08,-14,1
1576279942,2019-12-14 00:32,50.37,970.00,995.79,214,6.48,-3.09,-16,1
1576280002,2019-12-14 00:33,50.24,969.89,995.68,214,6.45,-3.15,-17,1
1576280062,2019-12-14 00:34,50.14,970.03,995.82,214,6.47,-3.16,-17,1
1576280122,2019-12-14 00:35,50.20,969.94,995.72,214,6.48,-3.14,-14,1
1576280182,2019-12-14 00:36,50.21,970.00,995.79,214,6.43,-3.18,-17,1
1576280242,2019-12-14 00:37,50.30,970.00,995.79,214,6.48,-3.11,-19,1
1576280303,2019-12-14 00:38,50.82,970.04,995.83,214,6.44,-3.01,-17,1
1576280363,2019-12-14 00:39,50.70,970.05,995.84,214,6.36,-3.12,-17,1
1576280423,2019-12-14 00:40,50.60,970.06,995.85,214,6.43,-3.08,-18,1
1576280483,2019-12-14 00:41,50.48,970.02,995.80,214,6.43,-3.11,-17,1
1576280543,2019-12-14 00:42,50.47,969.92,995.70,214,6.36,-3.18,-16,1
1576280603,2019-12-14 00:43,50.49,969.97,995.75,214,6.43,-3.11,-17,1
1576280663,2019-12-14 00:44,50.56,969.97,995.75,214,6.39,-3.12,-18,1
1576280723,2019-12-14 00:45,50.73,969.91,995.69,214,6.40,-3.07,-16,1
1576280783,2019-12-14 00:46,50.68,970.05,995.83,214,6.38,-3.10,-19,1
1576280844,2019-12-14 00:47,50.95,970.08,995.86,214,6.39,-3.02,-16,1
1576280904,2019-12-14 00:48,50.97,970.08,995.86,214,6.36,-3.04,-15,1
1576280964,2019-12-14 00:49,50.90,970.02,995.80,214,6.36,-3.06,-17,1
1576281024,2019-12-14 00:50,51.00,970.13,995.92,214,6.34,-3.05,-18,1
1576281084,2019-12-14 00:51,51.57,970.16,995.95,214,6.32,-2.92,-17,1
1576281144,2019-12-14 00:52,51.58,970.15,995.93,214,6.33,-2.91,-18,1
1576281204,2019-12-14 00:53,51.45,970.14,995.92,214,6.31,-2.96,-18,1
1576281264,2019-12-14 00:54,51.44,970.13,995.91,214,6.29,-2.99,-16,1
1576281324,2019-12-14 00:55,51.46,970.14,995.92,214,6.20,-3.06,-18,1
1576281385,2019-12-14 00:56,51.54,970.14,995.92,214,6.20,-3.04,-18,1
1576281445,2019-12-14 00:57,51.98,970.15,995.93,214,6.21,-2.92,-16,1
1576281505,2019-12-14 00:58,51.48,970.15,995.93,214,6.21,-3.05,-15,1
1576281565,2019-12-14 00:59,51.77,970.14,995.92,214,6.18,-3.00,-15,1
1576281625,2019-12-14 01:00,52.04,970.12,995.90,214,6.15,-2.96,-18,1
1576281685,2019-12-14 01:01,52.15,970.06,995.85,214,6.15,-2.93,-16,1
1576281745,2019-12-14 01:02,52.25,970.20,995.99,214,6.09,-2.96,-16,1
1576281805,2019-12-14 01:03,51.89,970.21,995.99,214,6.04,-3.10,-18,1
1576281865,2019-12-14 01:04,51.84,970.18,995.97,214,6.09,-3.07,-16,1
1576281925,2019-12-14 01:05,51.87,970.22,996.00,214,6.06,-3.09,-18,1
1576281985,2019-12-14 01:06,52.35,970.08,995.87,214,6.05,-2.97,-14,1
1576282046,2019-12-14 01:07,52.61,970.17,995.95,214,6.01,-2.94,-15,1
1576282106,2019-12-14 01:08,52.52,970.23,996.01,214,5.99,-2.98,-16,1
1576282166,2019-12-14 01:09,52.86,970.31,996.10,214,5.94,-2.95,-17,1
1576282226,2019-12-14 01:10,52.44,970.34,996.12,214,5.95,-3.04,-16,1
1576282286,2019-12-14 01:11,52.74,970.30,996.08,214,5.86,-3.05,-15,1
1576282346,2019-12-14 01:12,54.42,970.31,996.09,214,5.85,-2.64,-16,1
1576282406,2019-12-14 01:13,53.68,970.32,996.11,214,5.87,-2.80,-15,1
1576282529,2019-12-14 01:15,52.96,970.29,996.08,214,5.83,-3.02,-18,1
1576282590,2019-12-14 01:16,53.08,970.32,996.10,214,5.74,-3.08,-18,1
1576282650,2019-12-14 01:17,53.13,970.21,995.99,214,5.80,-3.01,-19,1
1576282710,2019-12-14 01:18,53.45,970.30,996.08,214,5.72,-3.00,-17,1
1576282771,2019-12-14 01:19,54.02,970.29,996.08,214,5.74,-2.84,-17,1
1576282831,2019-12-14 01:20,54.00,970.24,996.02,214,5.64,-2.94,-14,1
1576282891,2019-12-14 01:21,53.42,970.34,996.12,214,5.70,-3.03,-16,1
1576282952,2019-12-14 01:22,53.70,970.35,996.13,214,5.68,-2.97,-18,1
1576283012,2019-12-14 01:23,53.33,970.35,996.13,214,5.66,-3.09,-18,1
1576283072,2019-12-14 01:24,53.52,970.32,996.11,214,5.64,-3.06,-18,1
1576283132,2019-12-14 01:25,54.42,970.32,996.11,214,5.59,-2.88,-16,1
1576283193,2019-12-14 01:26,53.74,970.31,996.09,214,5.61,-3.03,-14,1
1576283253,2019-12-14 01:27,53.57,970.30,996.08,214,5.60,-3.08,-16,1
1576283313,2019-12-14 01:28,54.13,970.32,996.10,214,5.59,-2.95,-18,1
1576283373,2019-12-14 01:29,53.97,970.34,996.12,214,5.56,-3.02,-17,1
1576283434,2019-12-14 01:30,53.88,970.33,996.11,214,5.51,-3.09,-14,1
1576283494,2019-12-14 01:31,53.96,970.19,995.97,214,5.53,-3.05,-17,1
1576283554,2019-12-14 01:32,53.88,970.36,996.14,214,5.49,-3.11,-16,1
1576283615,2019-12-14 01:33,54.00,970.35,996.13,214,5.48,-3.09,-16,1
1576283675,2019-12-14 01:34,53.97,970.21,996.00,214,5.49,-3.08,-16,1
1576283735,2019-12-14 01:35,54.70,970.34,996.12,214,5.46,-2.93,-19,1
1576283795,2019-12-14 01:36,54.58,970.26,996.04,214,5.46,-2.96,-18,1
1576283856,2019-12-14 01:37,55.34,970.33,996.11,214,5.37,-2.86,-16,1
1576283916,2019-12-14 01:38,55.39,970.30,996.08,214,5.38,-2.84,-16,1
1576283976,2019-12-14 01:39,55.06,970.36,996.14,214,5.39,-2.91,-18,1
1576284037,2019-12-14 01:40,54.91,970.35,996.13,214,5.31,-3.02,-17,1
1576284097,2019-12-14 01:41,55.32,970.34,996.13,214,5.37,-2.86,-17,1
1576284157,2019-12-14 01:42,55.51,970.40,996.18,214,5.36,-2.83,-18,1
1576284217,2019-12-14 01:43,55.22,970.38,996.17,214,5.35,-2.91,-17,1
1576284278,2019-12-14 01:44,55.29,970.33,996.12,214,5.33,-2.91,-17,1
1576284338,2019-12-14 01:45,55.03,970.37,996.16,214,5.30,-3.00,-15,1
1576284398,2019-12-14 01:46,55.44,970.41,996.19,214,5.27,-2.93,-18,1
1576284458,2019-12-14 01:47,54.95,970.41,996.20,214,5.26,-3.06,-15,1
1576284519,2019-12-14 01:48,55.07,970.36,996.14,214,5.27,-3.02,-16,1
1576284579,2019-12-14 01:49,55.97,970.46,996.25,214,5.23,-2.84,-17,1
1576284639,2019-12-14 01:50,55.32,970.49,996.28,214,5.26,-2.97,-18,1
1576284700,2019-12-14 01:51,56.05,970.51,996.29,214,5.22,-2.83,-15,1
1576284760,2019-12-14 01:52,55.49,970.50,996.28,214,5.18,-3.00,-20,1
1576284820,2019-12-14 01:53,55.40,970.44,996.22,214,5.21,-3.00,-16,1
1576284880,2019-12-14 01:54,55.57,970.48,996.26,214,5.19,-2.97,-18,1
1576284941,2019-12-14 01:55,55.42,970.47,996.25,214,5.14,-3.06,-19,1
1576285001,2019-12-14 01:56,55.67,970.37,996.15,214,5.16,-2.98,-16,1
1576285061,2019-12-14 01:57,55.59,970.44,996.22,214,5.18,-2.98,-15,1
1576285121,2019-12-14 01:58,55.44,970.41,996.19,214,5.17,-3.02,-18,1
1576285182,2019-12-14 01:59,55.62,970.42,996.20,214,5.16,-2.99,-16,1
1576285242,2019-12-14 02:00,55.63,970.35,996.13,214,5.10,-3.04,-17,1
1576285302,2019-12-14 02:01,55.98,970.35,996.13,214,5.16,-2.90,-18,1
1576285363,2019-12-14 02:02,56.18,970.37,996.15,214,5.16,-2.85,-19,1
1576285423,2019-12-14 02:03,56.29,970.34,996.13,214,5.07,-2.91,-17,1
1576285483,2019-12-14 02:04,56.26,970.33,996.11,214,5.12,-2.87,-16,1
1576285543,2019-12-14 02:05,55.93,970.33,996.12,214,5.12,-2.95,-17,1
1576285604,2019-12-14 02:06,55.86,970.39,996.17,214,5.11,-2.98,-18,1
1576285664,2019-12-14 02:07,55.86,970.40,996.19,214,5.09,-3.00,-15,1
1576285724,2019-12-14 02:08,55.82,970.42,996.21,214,5.07,-3.03,-17,1
1576285785,2019-12-14 02:09,55.87,970.40,996.18,214,5.10,-2.99,-20,1
1576285845,2019-12-14 02:10,55.72,970.46,996.25,214,5.07,-3.05,-16,1
1576285905,2019-12-14 02:11,56.04,970.43,996.21,214,5.08,-2.96,-18,1
1576285965,2019-12-14 02:12,55.80,970.54,996.33,214,5.07,-3.03,-19,1
1576286026,2019-12-14 02:13,55.26,970.55,996.33,214,5.06,-3.17,-18,1
1576286086,2019-12-14 02:14,55.06,970.63,996.41,214,5.09,-3.19,-18,1
1576286146,2019-12-14 02:15,55.15,970.64,996.43,214,5.10,-3.16,-16,1
1576286207,2019-12-14 02:16,54.69,970.58,996.36,214,5.18,-3.20,-17,1
1576286267,2019-12-14 02:17,54.56,970.61,996.39,214,5.26,-3.15,-17,1
1576286327,2019-12-14 02:18,54.56,970.56,996.34,214,5.27,-3.14,-16,1
1576286387,2019-12-14 02:19,55.14,970.37,996.15,214,5.25,-3.02,-19,1
1576286448,2019-12-14 02:20,55.03,970.48,996.26,214,5.21,-3.09,-17,1
1576286508,2019-12-14 02:21,54.62,970.47,996.26,214,5.24,-3.16,-20,1
1576286568,2019-12-14 02:22,54.57,970.47,996.26,214,5.25,-3.16,-20,1
1576286629,2019-12-14 02:23,54.81,970.51,996.29,214,5.25,-3.10,-19,1
1576286689,2019-12-14 02:24,55.36,970.48,996.27,214,5.23,-2.99,-16,1
1576286749,2019-12-14 02:25,55.23,970.47,996.25,214,5.22,-3.03,-13,1
1576286809,2019-12-14 02:26,55.58,970.43,996.21,214,5.21,-2.95,-16,1
1576286870,2019-12-14 02:27,55.84,970.50,996.28,214,5.20,-2.90,-18,1
1576286930,2019-12-14 02:28,56.02,970.45,996.23,214,5.18,-2.88,-17,1
1576286990,2019-12-14 02:29,55.79,970.46,996.24,214,5.20,-2.91,-18,1
1576287051,2019-12-14 02:30,55.33,970.45,996.23,214,5.19,-3.03,-15,1
1576287111,2019-12-14 02:31,55.56,970.48,996.26,214,5.18,-2.99,-16,1
1576287171,2019-12-14 02:32,55.43,970.44,996.22,214,5.19,-3.01,-15,1
1576287231,2019-12-14 02:33,55.40,970.52,996.31,214,5.19,-3.01,-17,1
1576287292,2019-12-14 02:34,55.40,970.53,996.31,214,5.16,-3.04,-16,1
1576287352,2019-12-14 02:35,55.45,970.45,996.24,214,5.17,-3.02,-17,1
1576287412,2019-12-14 02:36,56.08,970.41,996.20,214,5.13,-2.91,-19,1
1576287473,2019-12-14 02:37,56.05,970.44,996.22,214,5.17,-2.88,-16,1
1576287533,2019-12-14 02:38,56.00,970.45,996.23,214,5.14,-2.92,-18,1
1576287593,2019-12-14 02:39,56.03,970.43,996.21,214,5.10,-2.95,-17,1
1576287653,2019-12-14 02:40,55.93,970.37,996.16,214,5.12,-2.95,-17,1
1576287714,2019-12-14 02:41,55.85,970.35,996.13,214,5.11,-2.98,-17,1
1576287774,2019-12-14 02:42,56.02,970.29,996.07,214,5.10,-2.95,-16,1
1576287834,2019-12-14 02:43,55.99,970.30,996.08,214,5.09,-2.97,-18,1
1576287894,2019-12-14 02:44,56.12,970.34,996.12,214,5.07,-2.95,-16,1
1576287955,2019-12-14 02:45,56.02,970.32,996.11,214,5.04,-3.00,-15,1
1576288015,2019-12-14 02:46,56.20,970.25,996.03,214,5.05,-2.95,-15,1
1576288075,2019-12-14 02:47,56.29,970.30,996.08,214,5.05,-2.93,-18,1
1576288136,2019-12-14 02:48,56.60,970.30,996.09,214,5.00,-2.90,-17,1
1576288196,2019-12-14 02:49,56.70,970.27,996.05,214,5.01,-2.87,-16,1
1576288256,2019-12-14 02:50,56.86,970.28,996.06,214,5.01,-2.83,-16,1
1576288316,2019-12-14 02:51,56.83,970.21,995.99,214,4.99,-2.86,-19,1
1576288377,2019-12-14 02:52,56.32,970.27,996.05,214,4.92,-3.05,-18,1
1576288437,2019-12-14 02:53,56.27,970.26,996.04,214,4.95,-3.03,-16,1
1576288497,2019-12-14 02:54,55.79,970.31,996.09,214,4.94,-3.15,-18,1
1576288558,2019-12-14 02:55,57.30,970.30,996.08,214,4.95,-2.79,-18,1
1576288618,2019-12-14 02:56,57.08,970.28,996.07,214,4.92,-2.87,-20,1
1576288678,2019-12-14 02:57,57.13,970.25,996.04,214,4.89,-2.88,-16,1
1576288738,2019-12-14 02:58,57.35,970.27,996.05,214,4.86,-2.86,-23,1
1576288799,2019-12-14 02:59,57.46,970.32,996.10,214,4.75,-2.94,-15,1
1576288859,2019-12-14 03:00,57.45,970.26,996.05,214,4.79,-2.90,-15,1
1576288919,2019-12-14 03:01,57.23,970.18,995.96,214,4.76,-2.98,-18,1
1576288980,2019-12-14 03:03,57.13,970.28,996.06,214,4.77,-3.00,-17,1
1576289040,2019-12-14 03:04,58.12,970.24,996.03,214,4.73,-2.80,-16,1
1576289100,2019-12-14 03:05,57.67,970.28,996.06,214,4.73,-2.91,-18,1
1576289160,2019-12-14 03:06,57.47,970.29,996.07,214,4.66,-3.02,-17,1
1576289221,2019-12-14 03:07,57.56,970.23,996.01,214,4.69,-2.97,-19,1
1576289281,2019-12-14 03:08,57.81,970.30,996.09,214,4.66,-2.94,-16,1
1576289341,2019-12-14 03:09,57.86,970.30,996.09,214,4.65,-2.94,-16,1
1576289402,2019-12-14 03:10,58.15,970.32,996.11,214,4.63,-2.89,-17,1
1576289462,2019-12-14 03:11,57.81,970.32,996.10,214,4.62,-2.98,-15,1
1576289522,2019-12-14 03:12,57.58,970.32,996.10,214,4.62,-3.03,-17,1
1576289582,2019-12-14 03:13,58.29,970.22,996.01,214,4.60,-2.88,-16,1
1576289643,2019-12-14 03:14,58.16,970.29,996.07,214,4.59,-2.92,-17,1
1576289703,2019-12-14 03:15,58.04,970.30,996.08,214,4.53,-3.01,-18,1
1576289763,2019-12-14 03:16,58.78,970.27,996.05,214,4.54,-2.83,-17,1
1576289824,2019-12-14 03:17,58.99,970.25,996.04,214,4.56,-2.76,-18,1
1576289884,2019-12-14 03:18,58.84,970.26,996.04,214,4.52,-2.83,-16,1
1576289944,2019-12-14 03:19,58.72,970.26,996.04,214,4.51,-2.87,-16,1
1576290004,2019-12-14 03:20,58.79,970.28,996.07,214,4.48,-2.88,-19,1
1576290065,2019-12-14 03:21,58.93,970.29,996.07,214,4.46,-2.87,-17,1
1576290125,2019-12-14 03:22,59.36,970.16,995.94,214,4.50,-2.73,-17,1
1576290185,2019-12-14 03:23,59.17,970.29,996.07,214,4.45,-2.82,-17,1
1576290245,2019-12-14 03:24,59.18,970.35,996.13,214,4.43,-2.84,-16,1
1576290306,2019-12-14 03:25,59.59,970.38,996.16,214,4.37,-2.80,-14,1
1576290366,2019-12-14 03:26,59.14,970.38,996.16,214,4.43,-2.85,-16,1
1576290426,2019-12-14 03:27,58.77,970.40,996.18,214,4.41,-2.95,-18,1
1576290487,2019-12-14 03:28,58.68,970.40,996.19,214,4.38,-3.00,-17,1
1576290547,2019-12-14 03:29,58.81,970.31,996.09,214,4.41,-2.94,-16,1
1576290607,2019-12-14 03:30,58.01,970.31,996.09,214,4.43,-3.11,-16,1
1576290667,2019-12-14 03:31,59.83,970.29,996.08,214,4.37,-2.75,-15,1
1576290728,2019-12-14 03:32,59.39,970.33,996.11,214,4.38,-2.84,-19,1
1576290788,2019-12-14 03:33,58.79,970.32,996.10,214,4.39,-2.97,-17,1
1576290848,2019-12-14 03:34,58.99,970.34,996.13,214,4.34,-2.97,-17,1
1576290909,2019-12-14 03:35,59.41,970.33,996.11,214,4.28,-2.93,-17,1
1576290969,2019-12-14 03:36,59.38,970.24,996.02,214,4.33,-2.89,-16,1
1576291029,2019-12-14 03:37,59.18,970.34,996.12,214,4.27,-2.99,-17,1
1576291089,2019-12-14 03:38,59.19,970.30,996.09,214,4.31,-2.95,-15,1
1576291150,2019-12-14 03:39,59.25,970.32,996.10,214,4.29,-2.96,-18,1
1576291210,2019-12-14 03:40,59.29,970.25,996.04,214,4.25,-2.99,-18,1
1576291270,2019-12-14 03:41,59.28,970.31,996.10,214,4.25,-2.99,-17,1
1576291331,2019-12-14 03:42,59.36,970.23,996.01,214,4.27,-2.95,-16,1
1576291391,2019-12-14 03:43,60.29,970.25,996.03,214,4.26,-2.75,-16,1
1576291451,2019-12-14 03:44,59.65,970.16,995.94,214,4.26,-2.89,-16,1
1576291511,2019-12-14 03:45,59.50,970.15,995.93,214,4.26,-2.93,-16,1
1576291572,2019-12-14 03:46,59.88,970.23,996.02,214,4.30,-2.80,-16,1
1576291632,2019-12-14 03:47,59.93,970.30,996.08,214,4.28,-2.81,-18,1
1576291692,2019-12-14 03:48,59.50,970.23,996.01,214,4.26,-2.93,-17,1
1576291753,2019-12-14 03:49,59.92,970.24,996.02,214,4.24,-2.85,-18,1
1576291813,2019-12-14 03:50,60.09,970.26,996.04,214,4.24,-2.81,-16,1
1576291873,2019-12-14 03:51,59.83,970.24,996.03,214,4.29,-2.83,-19,1
1576291933,2019-12-14 03:52,60.43,970.29,996.07,214,4.25,-2.73,-19,1
1576291994,2019-12-14 03:53,59.18,970.26,996.04,214,4.24,-3.02,-16,1
1576292054,2019-12-14 03:54,59.44,970.23,996.02,214,4.27,-2.93,-18,1
1576292114,2019-12-14 03:55,59.41,970.31,996.09,214,4.27,-2.94,-16,1
1576292174,2019-12-14 03:56,59.75,970.23,996.01,214,4.24,-2.89,-17,1
1576292235,2019-12-14 03:57,59.75,970.29,996.07,214,4.18,-2.95,-18,1
1576292295,2019-12-14 03:58,59.29,970.28,996.07,214,4.23,-3.00,-16,1
1576292355,2019-12-14 03:59,59.57,970.27,996.06,214,4.23,-2.94,-17,1
1576292415,2019-12-14 04:00,60.01,970.19,995.97,214,4.14,-2.93,-19,1
1576292476,2019-12-14 04:01,60.09,970.22,996.00,214,4.19,-2.86,-16,1
1576292536,2019-12-14 04:02,60.00,970.21,995.99,214,4.19,-2.88,-17,1
1576292596,2019-12-14 04:03,60.25,970.26,996.05,214,4.19,-2.83,-19,1
1576292657,2019-12-14 04:04,60.16,970.21,996.00,214,4.16,-2.87,-17,1
1576292717,2019-12-14 04:05,60.14,970.23,996.01,214,4.16,-2.88,-18,1
1576292777,2019-12-14 04:06,60.05,970.25,996.03,214,4.14,-2.92,-18,1
1576292837,2019-12-14 04:07,60.70,970.11,995.89,214,4.11,-2.80,-17,1
1576292898,2019-12-14 04:08,60.21,970.22,996.00,214,4.12,-2.90,-18,1
1576292958,2019-12-14 04:09,60.66,970.23,996.01,214,4.10,-2.82,-18,1
1576293018,2019-12-14 04:10,60.50,970.19,995.97,214,4.02,-2.93,-18,1
1576293079,2019-12-14 04:11,60.41,970.20,995.98,214,4.07,-2.90,-16,1
1576293139,2019-12-14 04:12,60.24,970.29,996.07,214,4.05,-2.96,-15,1
1576293199,2019-12-14 04:13,60.89,970.24,996.02,214,4.05,-2.82,-17,1
1576293259,2019-12-14 04:14,60.47,970.25,996.03,214,4.08,-2.88,-18,1
1576293320,2019-12-14 04:15,60.65,970.27,996.06,214,4.08,-2.84,-18,1
1576293380,2019-12-14 04:16,61.05,970.28,996.07,214,4.08,-2.75,-17,1
1576293440,2019-12-14 04:17,61.16,970.23,996.01,214,4.07,-2.74,-15,1
1576293500,2019-12-14 04:18,60.84,970.34,996.12,214,4.06,-2.82,-16,1
1576293561,2019-12-14 04:19,60.84,970.28,996.07,214,4.04,-2.84,-16,1
1576293621,2019-12-14 04:20,60.68,970.34,996.12,214,4.03,-2.88,-18,1
1576293681,2019-12-14 04:21,60.82,970.38,996.17,214,4.01,-2.87,-17,1
1576293742,2019-12-14 04:22,60.67,970.36,996.14,214,4.01,-2.90,-17,1
1576293802,2019-12-14 04:23,60.53,970.36,996.14,214,3.96,-2.98,-18,1
1576293862,2019-12-14 04:24,60.46,970.29,996.08,214,4.02,-2.94,-15,1
1576293922,2019-12-14 04:25,60.35,970.34,996.12,214,4.01,-2.97,-16,1
1576293982,2019-12-14 04:26,60.54,970.39,996.17,214,4.02,-2.92,-16,1
1576294042,2019-12-14 04:27,60.76,970.31,996.10,214,4.02,-2.87,-17,1
1576294102,2019-12-14 04:28,60.89,970.41,996.20,214,4.03,-2.83,-18,1
1576294162,2019-12-14 04:29,60.27,970.42,996.21,214,3.97,-3.03,-18,1
1576294222,2019-12-14 04:30,60.49,970.41,996.20,214,4.06,-2.90,-16,1
1576294282,2019-12-14 04:31,61.13,970.34,996.12,214,4.05,-2.76,-17,1
1576294342,2019-12-14 04:32,60.72,970.40,996.18,214,4.03,-2.87,-18,1
1576294402,2019-12-14 04:33,60.47,970.48,996.27,214,4.06,-2.90,-17,1
1576294463,2019-12-14 04:34,61.12,970.51,996.29,214,4.05,-2.76,-16,1
1576294523,2019-12-14 04:35,60.66,970.45,996.23,214,4.06,-2.86,-18,1
1576294583,2019-12-14 04:36,60.43,970.54,996.32,214,4.03,-2.94,-17,1
1576294643,2019-12-14 04:37,60.41,970.55,996.33,214,4.06,-2.91,-16,1
1576294703,2019-12-14 04:38,60.50,970.57,996.35,214,4.04,-2.91,-16,1
1576294763,2019-12-14 04:39,60.54,970.58,996.36,214,4.01,-2.93,-19,1
1576294823,2019-12-14 04:40,60.56,970.59,996.38,214,4.01,-2.93,-18,1
1576294883,2019-12-14 04:41,60.65,970.58,996.37,214,4.04,-2.88,-17,1
1576294943,2019-12-14 04:42,60.67,970.55,996.34,214,4.03,-2.88,-17,1
1576295003,2019-12-14 04:43,60.55,970.56,996.34,214,4.07,-2.87,-13,1
1576295063,2019-12-14 04:44,60.60,970.51,996.29,214,4.05,-2.88,-15,1
1576295124,2019-12-14 04:45,60.80,970.51,996.29,214,4.11,-2.78,-18,1
1576295184,2019-12-14 04:46,61.51,970.53,996.31,214,4.11,-2.62,-17,1
1576295244,2019-12-14 04:47,61.12,970.45,996.23,214,4.10,-2.72,-17,1
1576295304,2019-12-14 04:48,61.30,970.53,996.31,214,4.12,-2.66,-17,1
1576295364,2019-12-14 04:49,60.83,970.51,996.29,214,4.13,-2.75,-17,1
1576295424,2019-12-14 04:50,60.79,970.50,996.28,214,4.16,-2.73,-16,1
1576295484,2019-12-14 04:51,61.84,970.50,996.28,214,4.18,-2.48,-15,1
1576295544,2019-12-14 04:52,61.56,970.45,996.23,214,4.17,-2.56,-17,1
1576295604,2019-12-14 04:53,60.72,970.48,996.26,214,4.19,-2.72,-15,1
1576295664,2019-12-14 04:54,60.54,970.49,996.27,214,4.18,-2.77,-17,1
1576295724,2019-12-14 04:55,60.45,970.52,996.31,214,4.18,-2.79,-17,1
1576295784,2019-12-14 04:56,60.51,970.57,996.36,214,4.19,-2.77,-16,1
1576295845,2019-12-14 04:57,60.76,970.49,996.28,214,4.18,-2.72,-16,1
1576295905,2019-12-14 04:58,60.64,970.59,996.37,214,4.17,-2.76,-17,1
1576295965,2019-12-14 04:59,60.34,970.53,996.32,214,4.21,-2.79,-17,1
1576296025,2019-12-14 05:00,60.25,970.53,996.32,214,4.22,-2.80,-17,1
1576296085,2019-12-14 05:01,60.20,970.49,996.27,214,4.20,-2.83,-17,1
1576296145,2019-12-14 05:02,60.54,970.55,996.33,214,4.25,-2.71,-17,1
1576296205,2019-12-14 05:03,60.25,970.50,996.29,214,4.26,-2.76,-16,1
1576296265,2019-12-14 05:04,60.12,970.45,996.23,214,4.27,-2.78,-17,1
1576296325,2019-12-14 05:05,58.86,970.49,996.28,214,4.32,-3.02,-15,1
1576296385,2019-12-14 05:06,60.08,970.45,996.24,214,4.32,-2.74,-17,1
1576296445,2019-12-14 05:07,59.92,970.48,996.27,214,4.31,-2.79,-19,1
1576296506,2019-12-14 05:08,59.49,970.47,996.26,214,4.36,-2.84,-17,1
1576296566,2019-12-14 05:09,59.84,970.48,996.27,214,4.33,-2.79,-16,1
1576296626,2019-12-14 05:10,60.75,970.54,996.33,214,4.36,-2.55,-19,1
1576296686,2019-12-14 05:11,60.52,970.53,996.32,214,4.36,-2.61,-15,1
1576296746,2019-12-14 05:12,59.98,970.55,996.33,214,4.31,-2.77,-16,1
1576296806,2019-12-14 05:13,60.16,970.52,996.30,214,4.35,-2.69,-19,1
1576296866,2019-12-14 05:14,60.30,970.52,996.30,214,4.31,-2.70,-18,1
1576296926,2019-12-14 05:15,60.68,970.56,996.34,214,4.35,-2.58,-15,1
1576296986,2019-12-14 05:16,60.32,970.54,996.32,214,4.40,-2.61,-18,1
1576297046,2019-12-14 05:17,60.10,970.56,996.34,214,4.38,-2.68,-18,1
1576297109,2019-12-14 05:18,60.14,970.51,996.29,214,4.35,-2.70,-17,1
1576297170,2019-12-14 05:19,60.06,970.54,996.32,214,4.40,-2.67,-16,1
1576297230,2019-12-14 05:20,59.50,970.56,996.34,214,4.42,-2.78,-18,1
1576297290,2019-12-14 05:21,60.23,970.50,996.29,214,4.42,-2.61,-16,1
1576297350,2019-12-14 05:22,60.13,970.51,996.30,214,4.39,-2.66,-16,1
1576297411,2019-12-14 05:23,59.76,970.62,996.40,214,4.42,-2.72,-18,1
1576297471,2019-12-14 05:24,59.81,970.66,996.44,214,4.40,-2.73,-18,1
1576297531,2019-12-14 05:25,59.72,970.64,996.43,214,4.42,-2.73,-19,1
1576297592,2019-12-14 05:26,59.86,970.66,996.45,214,4.39,-2.73,-14,1
1576297652,2019-12-14 05:27,59.89,970.66,996.45,214,4.36,-2.75,-18,1
1576297712,2019-12-14 05:28,59.35,970.71,996.49,214,4.40,-2.83,-18,1
1576297772,2019-12-14 05:29,59.68,970.69,996.47,214,4.41,-2.75,-19,1
1576297833,2019-12-14 05:30,59.88,970.73,996.52,214,4.41,-2.70,-18,1
1576297893,2019-12-14 05:31,59.15,970.69,996.47,214,4.43,-2.85,-19,1
1576297953,2019-12-14 05:32,59.52,970.64,996.43,214,4.44,-2.75,-18,1
1576298013,2019-12-14 05:33,60.21,970.70,996.48,214,4.43,-2.61,-16,1
1576298074,2019-12-14 05:34,60.00,970.72,996.50,214,4.43,-2.66,-16,1
1576298134,2019-12-14 05:35,59.77,970.69,996.47,214,4.37,-2.76,-19,1
1576298194,2019-12-14 05:36,60.23,970.64,996.43,214,4.44,-2.59,-17,1
1576298255,2019-12-14 05:37,60.38,970.74,996.52,214,4.44,-2.56,-16,1
1576298315,2019-12-14 05:38,60.45,970.74,996.52,214,4.44,-2.54,-16,1
1576298375,2019-12-14 05:39,60.20,970.77,996.55,214,4.41,-2.63,-18,1
1576298435,2019-12-14 05:40,59.57,970.76,996.55,214,4.41,-2.77,-18,1
1576298496,2019-12-14 05:41,59.79,970.79,996.57,214,4.50,-2.64,-19,1
1576298556,2019-12-14 05:42,60.32,970.82,996.61,214,4.49,-2.53,-18,1
1576298616,2019-12-14 05:43,59.99,970.85,996.63,214,4.50,-2.59,-19,1
1576298677,2019-12-14 05:44,58.96,970.83,996.61,214,4.51,-2.81,-16,1
1576298737,2019-12-14 05:45,59.93,970.83,996.61,214,4.50,-2.60,-16,1
1576298797,2019-12-14 05:46,60.08,970.86,996.64,214,4.49,-2.58,-16,1
1576298857,2019-12-14 05:47,59.93,970.78,996.57,214,4.48,-2.62,-18,1
1576298918,2019-12-14 05:48,59.87,970.85,996.64,214,4.47,-2.65,-17,1